Patuxent River, MD

9:23 AM EST on February 24, 2018 (GMT -0500)
Patuxent River Naval Air Station

Weather History for KNHK - October, 2013

Change the Weather History Date:

Sunday, October 6, 2013

  Actual Average Record
Temperature  
Mean Temperature 76 °F -  
Max Temperature 86 °F 71 °F 89 °F (1997)
Min Temperature 66 °F 52 °F 42 °F (1999)
Cooling Degree Days 11    
Growing Degree Days 26 (Base 50)    
Moisture  
Dew Point 65 °F    
Average Humidity 72    
Maximum Humidity 90    
Minimum Humidity 48    
Precipitation  
Precipitation 0.00 in - - ()
Sea Level Pressure  
Sea Level Pressure 30.00 in    
Wind  
Wind Speed 6 mph (South)    
Max Wind Speed 12 mph    
Max Gust Speed 20 mph    
Visibility 10 miles    
Events      
Averages and records for this station are not official NWS values.
T = Trace of Precipitation, MM = Missing Value Source: NWS Daily Summary

Daily Weather History Graph

Daily Weather History Graph

Search for Another Location

Airport or City:

Trip Planner

Search our weather history database for the weather conditions in past years. The results will help you decide how hot, cold, wet, or windy it might be!

Date:

Astronomy

Oct. 06, 2013 Rise Set
Actual Time 7:06 AM EDT 6:40 PM EDT
Civil Twilight 6:39 AM EDT 7:06 PM EDT
Nautical Twilight 6:09 AM EDT 7:37 PM EDT
Astronomical Twilight 5:38 AM EDT 8:08 PM EDT
Moon 8:46 AM EDT (10/6) 7:40 PM EDT (10/6)
Length of Visible Light 12h 27m
Length of Day
11h 34m
Waxing Crescent, 3% of the Moon is Illuminated
Oct 6
Waxing Crescent
Oct 11
First Quarter
Oct 18
Full
Oct 26
Last Quarter
Nov 3
New

Hourly Weather History & Observations

Time (EDT) Temp. Heat Index Dew Point Humidity Pressure Visibility Wind Dir Wind Speed Gust Speed Precip Events Conditions
12:52 AM 73.0 °F - 64.0 °F 73% 30.03 in 10.0 mi South 4.6 mph - N/A   Clear
1:52 AM 69.1 °F - 63.0 °F 81% 30.03 in 10.0 mi Calm Calm - N/A   Clear
2:52 AM 69.1 °F - 64.0 °F 84% 30.01 in 10.0 mi SSE 3.5 mph - N/A   Clear
3:52 AM 66.0 °F - 63.0 °F 90% 30.01 in 9.0 mi Calm Calm - 0.00 in   Clear
4:52 AM 71.1 °F - 64.9 °F 81% 30.01 in 10.0 mi SSW 6.9 mph - N/A   Clear
5:52 AM 71.1 °F - 64.9 °F 81% 30.01 in 10.0 mi SSW 9.2 mph - N/A   Clear
6:00 AM 71.6 °F - 64.4 °F 78% 30.01 in 10.0 mi SW 10.4 mph - N/A   Clear
6:52 AM 70.0 °F - 64.0 °F 81% 30.02 in 10.0 mi SW 6.9 mph - N/A   Scattered Clouds
7:52 AM 71.1 °F - 64.0 °F 78% 30.03 in 9.0 mi SW 9.2 mph - N/A   Scattered Clouds
8:52 AM 73.9 °F - 64.0 °F 71% 30.03 in 9.0 mi SW 9.2 mph - N/A   Scattered Clouds
9:52 AM 78.1 °F - 64.9 °F 64% 30.04 in 10.0 mi SSW 4.6 mph - N/A   Scattered Clouds
10:52 AM 81.0 °F 82.7 °F 64.9 °F 58% 30.04 in 10.0 mi SSW 4.6 mph - N/A   Scattered Clouds
11:52 AM 84.0 °F 85.4 °F 64.0 °F 51% 30.03 in 10.0 mi South 8.1 mph - N/A   Scattered Clouds
12:52 PM 86.0 °F 87.3 °F 64.0 °F 48% 30.02 in 10.0 mi South 10.4 mph - N/A   Scattered Clouds
1:52 PM 82.0 °F 84.9 °F 68.0 °F 62% 29.99 in 10.0 mi SE 9.2 mph - N/A   Scattered Clouds
2:52 PM 81.0 °F 84.1 °F 69.1 °F 67% 29.98 in 10.0 mi SE 8.1 mph - N/A   Scattered Clouds
3:52 PM 80.1 °F 82.3 °F 66.9 °F 64% 29.97 in 10.0 mi SE 11.5 mph - N/A   Scattered Clouds
4:52 PM 80.1 °F 82.1 °F 66.0 °F 62% 29.96 in 10.0 mi SE 10.4 mph - N/A   Scattered Clouds
5:52 PM 79.0 °F - 66.0 °F 64% 29.96 in 10.0 mi SSE 9.2 mph - N/A   Scattered Clouds
6:52 PM 75.9 °F - 66.9 °F 74% 29.97 in 10.0 mi SSE 5.8 mph - N/A   Clear
7:52 PM 75.0 °F - 66.9 °F 76% 29.98 in 10.0 mi SSE 8.1 mph - N/A   Clear
8:52 PM 73.9 °F - 68.0 °F 82% 29.98 in 10.0 mi SSE 8.1 mph - N/A   Clear
9:52 PM 73.0 °F - 66.9 °F 81% 29.98 in 10.0 mi SSE 8.1 mph - N/A   Clear
10:52 PM 73.0 °F - 66.0 °F 79% 29.98 in 10.0 mi South 11.5 mph - N/A   Scattered Clouds
11:52 PM 73.0 °F - 66.9 °F 81% 29.97 in 10.0 mi South 8.1 mph 19.6 mph N/A   Clear